This is the latest recevied weather packets stored in our database for station/object KY4LEX. If no packets are shown the sender has not sent any weather packets the latest 10 day(s).
| Time | Temp. | Humidity | Pressure | Rain* | Wind** | Luminosity | Snow |
|---|---|---|---|---|---|---|---|
| 1777597845 | 10.56° C | 66% | 1020.6 hPa | 0 mm | - | 0 W/m² | - |
| 1777597545 | 10.56° C | 65% | 1020.9 hPa | 0 mm | - | 0 W/m² | - |
| 1777597241 | 11.11° C | 62% | 1020.7 hPa | 0 mm | - | 0 W/m² | - |
| 1777596936 | 11.11° C | 62% | 1020.7 hPa | 0 mm | - | 0 W/m² | - |
| 1777596633 | 11.67° C | 59% | 1020.5 hPa | 0 mm | - | 0 W/m² | - |
| 1777596330 | 11.67° C | 57% | 1020.5 hPa | 0 mm | - | 0 W/m² | - |
| 1777596028 | 12.22° C | 56% | 1020.2 hPa | 0 mm | - | 0 W/m² | - |
| 1777595727 | 12.22° C | 56% | 1020.5 hPa | 0 mm | - | 1 W/m² | - |
| 1777595423 | 12.78° C | 52% | 1020.3 hPa | 0 mm | - | 2 W/m² | - |
| 1777595120 | 12.78° C | 52% | 1020.3 hPa | 0 mm | - | 3 W/m² | - |
| 1777594816 | 13.33° C | 50% | 1020.2 hPa | 0 mm | - | 5 W/m² | - |
| 1777594512 | 13.33° C | 49% | 1020.1 hPa | 0 mm | - | 8 W/m² | - |
| 1777594209 | 13.33° C | 48% | 1020.2 hPa | 0 mm | - | 10 W/m² | - |
| 1777593904 | 13.33° C | 46% | 1020.2 hPa | 0 mm | - | 13 W/m² | - |
| 1777593601 | 13.89° C | 49% | 1020.4 hPa | 0 mm | - | 15 W/m² | - |
| 1777593296 | 13.89° C | 46% | 1020 hPa | 0 mm | - | 16 W/m² | - |
| 1777592991 | 13.89° C | 43% | 1020.3 hPa | 0 mm | - | 18 W/m² | - |
| 1777592686 | 14.44° C | 44% | 1020.2 hPa | 0 mm | - | 20 W/m² | - |
| 1777592381 | 15° C | 49% | 1020.2 hPa | 0 mm | - | 22 W/m² | - |
| 1777592077 | 15° C | 46% | 1020 hPa | 0 mm | - | 24 W/m² | - |
| 1777591775 | 15° C | 40% | 1020.2 hPa | 0 mm | - | 26 W/m² | - |
| 1777591470 | 15° C | 44% | 1020.2 hPa | 0 mm | - | 28 W/m² | - |
| 1777591167 | 15° C | 40% | 1020.1 hPa | 0 mm | - | 30 W/m² | - |
| 1777590861 | 15.56° C | 38% | 1020.3 hPa | 0 mm | - | 31 W/m² | - |
| 1777590558 | 15.56° C | 39% | 1020.1 hPa | 0 mm | - | 31 W/m² | - |
* Rain latest hour (hover to see other rain measurements)
** Current wind speed in m/s (hover to see current wind gust speed)